GW6252 Weather Reports


Display with metric or nautical units.
time (UTC)temp
F
wind
direction
speed
MPH
gust
MPH
rain 1hr
in
rain 24hr
in
rain mn
in
humidity
%
barometer
mb
20260510093500 63 308 3.0 4.0 0.00 0.00 0.00 93 1010.4
20260510093000 63 309 3.0 4.0 0.00 0.00 0.00 93 1010.2
20260510092500 63 307 3.0 3.0 0.00 0.00 0.00 93 1010.1
20260510092000 63 315 2.0 2.0 0.00 0.00 0.00 93 1009.9
20260510091500 63 303 2.0 2.0 0.00 0.00 0.00 93 1010.0
20260510091000 63 276 1.0 2.0 0.00 0.00 0.00 93 1009.9
20260510090500 63 236 2.0 2.0 0.00 0.00 0.00 92 1009.8
20260510090000 63 309 1.0 2.0 0.00 0.00 0.00 92 1009.7
20260510085500 63 295 2.0 2.0 0.00 0.00 0.00 92 1009.7
20260510085000 63 305 2.0 2.0 0.00 0.00 0.00 92 1009.5
20260510084500 64 342 1.0 2.0 0.00 0.00 0.00 92 1009.4
20260510084000 64 51 1.0 2.0 0.00 0.00 0.00 92 1009.5
20260510083500 64 32 2.0 2.0 0.00 0.00 0.00 92 1009.4
20260510083000 63 33 1.0 2.0 0.00 0.00 0.00 93 1009.3
20260510082500 63 1 0.0 2.0 0.00 0.00 0.00 92 1009.3
20260510082000 63 5 1.0 2.0 0.00 0.00 0.00 92 1009.2
20260510081500 63 130 2.0 2.0 0.00 0.00 0.00 92 1009.2
20260510081000 63 162 1.0 2.0 0.00 0.00 0.00 92 1009.3
20260510080500 63 211 1.0 2.0 0.00 0.00 0.00 92 1009.3
20260510080000 63 269 1.0 3.0 0.00 0.00 0.00 92 1009.3
20260510075500 63 208 1.0 3.0 0.00 0.00 0.00 91 1009.1
20260510075000 64 160 2.0 3.0 0.00 0.00 0.00 91 1009.0
20260510074500 64 151 2.0 2.0 0.00 0.00 0.00 91 1009.0
20260510074000 64 119 1.0 1.0 0.00 0.00 0.00 91 1009.0
20260510073500 64 71 1.0 2.0 0.00 0.00 0.00 91 1009.2
20260510073000 64 74 1.0 2.0 0.00 0.00 0.00 91 1009.2
20260510072500 64 121 1.0 1.0 0.00 0.00 0.00 90 1009.1
20260510072000 64 181 0.0 2.0 0.00 0.00 0.00 90 1009.2
20260510071500 64 180 1.0 2.0 0.00 0.00 0.00 90 1009.3
20260510071000 64 234 1.0 2.0 0.00 0.00 0.00 89 1009.4
20260510070500 65 217 1.0 2.0 0.00 0.00 0.00 89 1009.4
20260510070000 65 265 1.0 2.0 0.00 0.00 0.00 89 1009.5
20260510065500 65 264 1.0 2.0 0.00 0.00 0.00 88 1009.5
20260510065000 66 247 2.0 2.0 0.00 0.00 0.00 86 1009.4
20260510064500 66 270 1.0 2.0 0.00 0.00 0.00 85 1009.4
20260510064000 66 93 2.0 2.0 0.00 0.00 0.00 84 1009.3
20260510063500 67 97 1.0 2.0 0.00 0.00 0.00 84 1009.4
20260510063000 67 96 2.0 2.0 0.00 0.00 0.00 84 1009.4
20260510062500 66 85 1.0 2.0 0.00 0.00 0.00 85 1009.3
20260510062000 66 152 1.0 2.0 0.00 0.00 0.00 85 1009.3
20260510061500 66 166 2.0 2.0 0.00 0.00 0.00 85 1009.4
20260510061000 66 177 1.0 2.0 0.00 0.00 0.00 85 1009.3
20260510060500 66 177 1.0 2.0 0.00 0.00 0.00 85 1009.3
20260510060000 66 200 2.0 3.0 0.00 0.00 0.00 84 1009.2
20260510055500 67 211 2.0 3.0 0.00 0.00 0.00 84 1009.2
20260510055000 67 191 2.0 4.0 0.00 0.00 0.00 84 1009.1
20260510054500 67 184 2.0 4.0 0.00 0.00 0.00 84 1009.1
20260510054000 66 168 2.0 4.0 0.00 0.00 0.00 85 1009.0
20260510053500 66 143 2.0 2.0 0.00 0.00 0.00 85 1009.0
20260510053000 67 156 2.0 2.0 0.00 0.00 0.00 84 1009.0
20260510052500 67 156 2.0 2.0 0.00 0.00 0.00 85 1009.1
20260510052000 67 184 2.0 2.0 0.00 0.00 0.00 84 1009.1
20260510051500 67 209 2.0 3.0 0.00 0.00 0.00 85 1009.1
20260510051000 67 209 2.0 3.0 0.00 0.00 0.00 86 1009.1
20260510050500 67 230 3.0 3.0 0.00 0.00 0.00 86 1009.1
20260510050000 67 198 1.0 3.0 0.00 0.00 0.00 85 1009.0
20260510045500 67 173 2.0 3.0 0.00 0.00 0.00 85 1008.9
20260510045000 67 183 3.0 3.0 0.00 0.00 0.00 85 1009.0
20260510044500 67 207 2.0 3.0 0.00 0.00 0.00 85 1009.0
20260510044000 68 184 2.0 3.0 0.00 0.00 0.00 84 1009.0
20260510043500 68 158 2.0 3.0 0.00 0.00 0.00 83 1009.0
20260510043000 68 175 2.0 3.0 0.00 0.00 0.00 82 1009.0
20260510042500 68 196 2.0 3.0 0.00 0.00 0.00 83 1009.0
20260510042000 68 186 2.0 3.0 0.00 0.00 0.00 82 1009.0
20260510041500 68 187 2.0 3.0 0.00 0.00 0.00 83 1009.0
20260510041000 68 190 2.0 3.0 0.00 0.00 0.00 83 1009.0
20260510040500 69 193 3.0 3.0 0.00 0.00 0.00 82 1009.0
20260510040000 69 193 3.0 3.0 0.00 0.00 0.00 81 1009.0
20260510035500 69 200 3.0 3.0 0.00 0.00 0.00 81 1009.0
20260510035000 70 212 3.0 5.0 0.00 0.00 0.00 79 1009.0
20260510034500 71 195 3.0 5.0 0.00 0.00 0.00 75 1008.9
20260510034000 71 168 4.0 5.0 0.00 0.00 0.00 75 1008.9
20260510033500 71 157 4.0 4.0 0.00 0.00 0.00 75 1008.9
20260510033000 71 151 4.0 4.0 0.00 0.00 0.00 76 1008.9
20260510032500 71 158 2.0 4.0 0.00 0.00 0.00 75 1008.9
20260510032000 71 172 3.0 6.0 0.00 0.00 0.00 75 1008.9
20260510031500 72 174 4.0 6.0 0.00 0.00 0.00 74 1008.8
20260510031000 72 176 5.0 6.0 0.00 0.00 0.00 73 1008.8
20260510030500 72 171 5.0 6.0 0.00 0.00 0.00 74 1008.8
20260510030000 71 171 5.0 6.0 0.00 0.00 0.00 75 1008.8
20260510025500 72 183 4.0 6.0 0.00 0.00 0.00 76 1008.8
20260510025000 72 195 4.0 6.0 0.00 0.00 0.00 75 1008.7
20260510024500 72 185 6.0 8.0 0.00 0.00 0.00 73 1008.7
20260510024001 73 191 6.0 8.0 0.00 0.00 0.00 72 1008.7
20260510023500 73 172 7.0 9.0 0.00 0.00 0.00 72 1008.6
20260510023000 74 174 8.0 9.0 0.00 0.00 0.00 70 1008.5
20260510022500 74 173 6.0 10.0 0.00 0.00 0.00 71 1008.4
20260510022000 73 172 8.0 10.0 0.00 0.00 0.00 72 1008.3
20260510021500 72 155 4.0 5.0 0.00 0.00 0.00 77 1008.3
20260510021000 72 160 3.0 3.0 0.00 0.00 0.00 81 1008.3
20260510020500 72 170 2.0 2.0 0.00 0.00 0.00 81 1008.3
20260510020000 72 117 1.0 3.0 0.00 0.00 0.00 80 1008.2
20260510015500 72 153 2.0 3.0 0.00 0.00 0.00 79 1008.2
20260510015000 72 168 2.0 3.0 0.00 0.00 0.00 80 1008.1
20260510014500 73 201 2.0 4.0 0.00 0.00 0.00 79 1008.2
20260510014000 73 203 2.0 4.0 0.00 0.00 0.00 78 1008.1
20260510013500 73 186 3.0 4.0 0.00 0.00 0.00 76 1008.1
20260510013000 74 183 3.0 4.0 0.00 0.00 0.00 73 1008.1
20260510012500 74 195 3.0 4.0 0.00 0.00 0.00 72 1008.0
20260510012000 75 200 3.0 4.0 0.00 0.00 0.00 72 1007.9
20260510011500 76 174 3.0 5.0 0.00 0.00 0.00 66 1007.9
20260510011000 76 160 4.0 5.0 0.00 0.00 0.00 65 1007.8
20260510010500 76 157 4.0 5.0 0.00 0.00 0.00 66 1007.7
20260510010000 77 152 4.0 6.0 0.00 0.00 0.00 64 1007.7
20260510005500 77 154 5.0 6.0 0.00 0.00 0.00 63 1007.7
20260510005000 77 153 5.0 5.0 0.00 0.00 0.00 63 1007.6
20260510004500 77 163 3.0 7.0 0.00 0.00 0.00 63 1007.5
20260510004000 77 162 5.0 7.0 0.00 0.00 0.00 62 1007.5
20260510003500 78 174 4.0 6.0 0.00 0.00 0.00 64 1007.5
20260510003005 78 128 3.0 3.0 0.00 0.00 0.00 62 1007.4
20260510002001 79 60 2.0 3.0 0.00 0.00 0.00 60 1007.3
20260510001500 79 48 2.0 3.0 0.00 0.00 0.00 58 1007.3
20260510001000 79 50 2.0 5.0 0.00 0.00 0.00 55 1007.3
20260510000500 80 89 3.0 5.0 0.00 0.00 0.00 52 1007.3
20260510000000 80 84 3.0 5.0 0.00 0.00 0.00 52 1007.3
20260509235506 80 92 3.0 6.0 0.00 0.00 0.00 51 1007.3
20260509234500 80 102 3.0 6.0 0.00 0.00 0.00 52 1007.2
20260509234000 80 98 4.0 7.0 0.00 0.00 0.00 52 1007.2
20260509233500 80 124 3.0 7.0 0.00 0.00 0.00 53 1007.2
20260509233000 80 107 5.0 7.0 0.00 0.00 0.00 52 1007.2
20260509232500 80 140 2.0 8.0 0.00 0.00 0.00 49 1007.2
20260509232000 80 104 5.0 10.0 0.00 0.00 0.00 49 1007.2
20260509231500 81 115 5.0 11.0 0.00 0.00 0.00 53 1007.2
20260509231000 81 138 5.0 11.0 0.00 0.00 0.00 53 1007.2
20260509230500 80 119 4.0 9.0 0.00 0.00 0.00 54 1007.2
20260509230000 81 88 4.0 9.0 0.00 0.00 0.00 50 1007.3
20260509225500 82 109 3.0 6.0 0.00 0.00 0.00 50 1007.3
20260509225000 82 312 1.0 3.0 0.00 0.00 0.00 46 1007.3
20260509224500 81 350 1.0 3.0 0.00 0.00 0.00 47 1007.3
20260509224000 81 37 2.0 3.0 0.00 0.00 0.00 47 1007.2
20260509223500 81 46 3.0 4.0 0.00 0.00 0.00 50 1007.2
20260509223000 81 11 3.0 4.0 0.00 0.00 0.00 48 1007.1
20260509222500 81 299 3.0 5.0 0.00 0.00 0.00 50 1007.0
20260509222000 80 20 4.0 6.0 0.00 0.00 0.00 47 1007.0
20260509221500 81 27 3.0 6.0 0.00 0.00 0.00 48 1007.0
20260509221000 81 58 3.0 6.0 0.00 0.00 0.00 51 1007.0
20260509220500 81 198 2.0 5.0 0.00 0.00 0.00 49 1006.9
20260509220000 81 352 4.0 6.0 0.00 0.00 0.00 48 1007.0
20260509215500 81 96 3.0 6.0 0.00 0.00 0.00 50 1007.0
20260509215000 81 153 0.0 4.0 0.00 0.00 0.00 52 1007.1
20260509214500 81 290 3.0 6.0 0.00 0.00 0.00 49 1007.1
20260509214000 80 78 3.0 6.0 0.00 0.00 0.00 50 1007.0
20260509213500 81 88 4.0 6.0 0.00 0.00 0.00 49 1007.1
20260509213000 81 255 2.0 6.0 0.00 0.00 0.00 49 1007.1
20260509212500 81 226 3.0 6.0 0.00 0.00 0.00 49 1007.3
20260509212000 81 214 3.0 6.0 0.00 0.00 0.00 51 1007.3
20260509211500 81 235 2.0 6.0 0.00 0.00 0.00 50 1007.3
20260509211000 81 86 1.0 7.0 0.00 0.00 0.00 55 1007.4
20260509210500 81 117 1.0 7.0 0.00 0.00 0.00 51 1007.5
20260509210000 81 68 4.0 6.0 0.00 0.00 0.00 51 1007.6
20260509205500 81 192 2.0 6.0 0.00 0.00 0.00 49 1007.7
20260509205000 81 271 3.0 6.0 0.00 0.00 0.00 49 1007.7
20260509204500 81 80 1.0 6.0 0.00 0.00 0.00 53 1007.8
20260509204000 80 356 3.0 8.0 0.00 0.00 0.00 49 1007.7
20260509203500 80 285 2.0 8.0 0.00 0.00 0.00 51 1007.8
20260509203000 80 135 3.0 7.0 0.00 0.00 0.00 52 1007.8
20260509202500 80 330 3.0 7.0 0.00 0.00 0.00 49 1007.8
20260509202000 81 138 4.0 7.0 0.00 0.00 0.00 55 1007.9
20260509201500 80 245 3.0 7.0 0.00 0.00 0.00 52 1007.9
20260509201000 80 230 4.0 6.0 0.00 0.00 0.00 52 1007.9
20260509200500 80 213 4.0 6.0 0.00 0.00 0.00 52 1007.9
20260509200000 79 164 3.0 9.0 0.00 0.00 0.00 52 1007.9
20260509195500 80 141 5.0 9.0 0.00 0.00 0.00 55 1008.0
20260509195000 79 38 5.0 6.0 0.00 0.00 0.00 54 1008.0
20260509194500 79 135 2.0 7.0 0.00 0.00 0.00 52 1008.1
20260509194000 79 112 5.0 7.0 0.00 0.00 0.00 54 1008.1
20260509193500 79 138 6.0 9.0 0.00 0.00 0.00 57 1008.2
20260509193000 79 122 4.0 9.0 0.00 0.00 0.00 59 1008.2
20260509192500 79 94 9.0 12.0 0.00 0.00 0.00 56 1008.3
20260509192000 79 93 6.0 12.0 0.00 0.00 0.00 59 1008.4
20260509191500 79 97 1.0 8.0 0.00 0.00 0.00 54 1008.4
20260509191000 79 101 4.0 8.0 0.00 0.00 0.00 57 1008.4
20260509190500 78 69 3.0 8.0 0.00 0.00 0.00 58 1008.4
20260509190000 79 80 4.0 7.0 0.00 0.00 0.00 55 1008.4
20260509185500 80 206 4.0 7.0 0.00 0.00 0.00 58 1008.4
20260509185000 79 71 2.0 9.0 0.00 0.00 0.00 64 1008.4
20260509184500 78 99 7.0 11.0 0.00 0.00 0.00 60 1008.4
20260509184000 79 67 5.0 11.0 0.00 0.00 0.00 63 1008.5
20260509183500 78 221 0.0 8.0 0.00 0.00 0.00 57 1008.6
20260509183000 79 190 1.0 10.0 0.00 0.00 0.00 58 1008.5
20260509182500 78 74 1.0 10.0 0.00 0.00 0.00 56 1008.5
20260509182000 78 299 2.0 9.0 0.00 0.00 0.00 55 1008.5
20260509181500 78 50 6.0 6.0 0.00 0.00 0.00 57 1008.5
20260509181000 78 46 1.0 6.0 0.00 0.00 0.00 61 1008.5
20260509180500 77 352 2.0 7.0 0.00 0.00 0.00 61 1008.4
20260509180000 77 56 6.0 7.0 0.00 0.00 0.00 60 1008.3
20260509175500 77 340 6.0 8.0 0.00 0.00 0.00 59 1008.3
20260509175000 77 321 6.0 8.0 0.00 0.00 0.00 60 1008.4
20260509174500 77 20 2.0 9.0 0.00 0.00 0.00 62 1008.5
20260509174000 77 106 5.0 9.0 0.00 0.00 0.00 60 1008.5
20260509173500 77 102 4.0 6.0 0.00 0.00 0.00 62 1008.6
20260509173000 77 228 0.0 7.0 0.00 0.00 0.00 60 1008.7
20260509172500 77 305 1.0 7.0 0.00 0.00 0.00 59 1008.6
20260509172000 77 126 2.0 7.0 0.00 0.00 0.00 60 1008.6
20260509171500 77 41 6.0 6.0 0.00 0.00 0.00 62 1008.7
20260509171000 77 186 1.0 9.0 0.00 0.00 0.00 59 1008.7
20260509170500 76 273 2.0 9.0 0.00 0.00 0.00 62 1008.6
20260509170001 76 95 3.0 10.0 0.00 0.00 0.00 63 1008.7
20260509165500 76 99 6.0 10.0 0.00 0.00 0.00 63 1008.8
20260509165000 76 293 1.0 8.0 0.00 0.00 0.00 60 1008.8
20260509164500 76 70 5.0 6.0 0.00 0.00 0.00 64 1008.8
20260509164001 76 269 1.0 4.0 0.00 0.00 0.00 60 1008.8
20260509163500 76 283 1.0 5.0 0.00 0.00 0.00 63 1008.7
20260509163000 75 248 2.0 5.0 0.00 0.00 0.00 61 1008.8
20260509162500 75 239 4.0 5.0 0.00 0.00 0.00 66 1008.8
20260509162000 75 267 2.0 6.0 0.00 0.00 0.00 63 1008.8
20260509161500 74 329 4.0 6.0 0.00 0.00 0.00 64 1008.7
20260509161000 74 46 1.0 6.0 0.00 0.00 0.00 66 1008.6
20260509160500 74 30 1.0 7.0 0.00 0.00 0.00 66 1008.5
20260509160000 73 301 3.0 7.0 0.00 0.00 0.00 67 1008.4
20260509155500 74 331 4.0 9.0 0.00 0.00 0.00 69 1008.4
20260509155000 73 327 6.0 9.0 0.00 0.00 0.00 66 1008.4
20260509154500 73 337 6.0 9.0 0.00 0.00 0.00 69 1008.3
20260509154000 73 353 1.0 9.0 0.00 0.00 0.00 66 1008.3
20260509153500 73 344 9.0 9.0 0.00 0.00 0.00 67 1008.2
20260509153000 72 358 6.0 8.0 0.00 0.00 0.00 71 1008.3
20260509152500 72 304 4.0 6.0 0.00 0.00 0.00 67 1008.2
20260509152000 72 325 6.0 7.0 0.00 0.00 0.00 69 1008.2
20260509151500 72 13 5.0 7.0 0.00 0.00 0.00 70 1008.3
20260509151000 72 350 6.0 6.0 0.00 0.00 0.00 72 1008.3
20260509150500 71 291 4.0 5.0 0.00 0.00 0.00 72 1008.3
20260509150000 71 295 1.0 4.0 0.00 0.00 0.00 72 1008.3
20260509145500 71 271 2.0 5.0 0.00 0.00 0.00 73 1008.3
20260509145000 71 298 1.0 5.0 0.00 0.00 0.00 73 1008.4
20260509144500 71 3 2.0 4.0 0.00 0.00 0.00 73 1008.4
20260509144000 70 195 2.0 4.0 0.00 0.00 0.00 73 1008.4
20260509143500 70 263 1.0 2.0 0.00 0.00 0.00 73 1008.4
20260509143000 70 269 2.0 3.0 0.00 0.00 0.00 75 1008.3
20260509142500 70 167 1.0 3.0 0.00 0.00 0.00 77 1008.3
20260509142000 69 199 1.0 3.0 0.00 0.00 0.00 76 1008.3
20260509141500 69 188 2.0 3.0 0.00 0.00 0.00 78 1008.3
20260509141000 70 165 2.0 3.0 0.00 0.00 0.00 77 1008.4
20260509140500 69 190 2.0 3.0 0.00 0.00 0.00 79 1008.4
20260509140000 69 43 1.0 3.0 0.00 0.00 0.00 78 1008.4
20260509135500 68 27 1.0 3.0 0.00 0.00 0.00 82 1008.3
20260509135000 67 214 2.0 3.0 0.00 0.00 0.00 83 1008.3
20260509134500 67 203 1.0 3.0 0.00 0.00 0.00 82 1008.3
20260509134000 67 179 2.0 4.0 0.00 0.00 0.00 82 1008.3
20260509133500 66 220 2.0 4.0 0.00 0.00 0.00 84 1008.3
20260509133000 66 167 3.0 4.0 0.00 0.00 0.00 85 1008.3
20260509132500 66 171 2.0 4.0 0.00 0.00 0.00 85 1008.2
20260509132000 65 170 3.0 4.0 0.00 0.00 0.00 85 1008.2
20260509131500 65 155 3.0 4.0 0.00 0.00 0.00 87 1008.1
20260509131000 64 193 4.0 4.0 0.00 0.00 0.00 89 1008.1
20260509130500 64 176 2.0 3.0 0.00 0.00 0.00 91 1008.0
20260509130000 63 196 3.0 4.0 0.00 0.00 0.00 91 1007.9
20260509125500 63 155 3.0 4.0 0.00 0.00 0.00 93 1007.9
20260509125000 62 147 3.0 4.0 0.00 0.00 0.00 93 1007.8
20260509124500 62 145 2.0 3.0 0.00 0.00 0.00 94 1007.8
20260509124000 62 127 1.0 2.0 0.00 0.00 0.00 94 1007.7
20260509123500 61 104 1.0 4.0 0.00 0.00 0.00 95 1007.7
20260509123000 61 163 1.0 4.0 0.00 0.00 0.00 94 1007.6
20260509122500 60 194 3.0 4.0 0.00 0.00 0.00 94 1007.6
20260509122000 60 202 2.0 5.0 0.00 0.00 0.00 94 1007.6
20260509121500 60 200 4.0 5.0 0.00 0.00 0.00 95 1007.6
20260509121000 59 193 5.0 5.0 0.00 0.00 0.00 95 1007.5
20260509120500 59 183 4.0 5.0 0.00 0.00 0.00 94 1007.4
20260509120000 59 190 3.0 3.0 0.00 0.00 0.00 94 1007.3
20260509115500 59 157 2.0 4.0 0.00 0.00 0.00 94 1007.2
20260509115000 58 176 2.0 5.0 0.00 0.00 0.00 94 1007.2
20260509114500 58 179 3.0 5.0 0.00 0.00 0.00 94 1007.2
20260509114000 58 160 4.0 5.0 0.00 0.00 0.00 94 1007.1
20260509113500 58 186 4.0 6.0 0.00 0.00 0.00 94 1007.1
20260509113000 58 188 5.0 6.0 0.00 0.00 0.00 94 1007.0
20260509112500 58 180 3.0 6.0 0.00 0.00 0.00 93 1006.9
20260509112000 58 193 4.0 6.0 0.00 0.00 0.00 93 1006.9
20260509111500 58 192 5.0 6.0 0.00 0.00 0.00 93 1006.7
20260509111000 58 194 5.0 5.0 0.00 0.00 0.00 93 1006.4
20260509110501 59 220 2.0 3.0 0.00 0.00 0.00 93 1006.2
20260509110000 59 265 1.0 3.0 0.00 0.00 0.00 93 1006.1
20260509105500 59 307 2.0 2.0 0.00 0.00 0.00 92 1006.0
20260509105000 59 256 1.0 2.0 0.00 0.00 0.00 92 1005.9
20260509104500 60 240 2.0 2.0 0.00 0.00 0.00 92 1006.0
20260509104000 60 346 1.0 2.0 0.00 0.00 0.00 91 1005.9
20260509103500 60 321 0.0 4.0 0.00 0.00 0.00 91 1005.9
20260509103000 61 281 0.0 5.0 0.00 0.00 0.00 92 1006.0
20260509102500 61 5 3.0 5.0 0.00 0.00 0.00 92 1006.0
20260509102000 61 2 3.0 5.0 0.00 0.00 0.00 92 1005.9
20260509101500 61 14 4.0 5.0 0.00 0.00 0.00 93 1006.0
20260509101000 60 1 4.0 4.0 0.00 0.00 0.00 93 1005.8
20260509100500 60 358 4.0 4.0 0.00 0.00 0.00 93 1005.7
20260509100000 60 344 3.0 5.0 0.00 0.00 0.00 93 1005.6
20260509095500 60 356 3.0 5.0 0.00 0.00 0.00 93 1005.6
20260509095000 60 331 4.0 4.0 0.00 0.00 0.00 92 1005.6
20260509094500 60 347 3.0 4.0 0.00 0.00 0.00 93 1005.5
20260509094000 60 343 2.0 3.0 0.00 0.00 0.00 92 1005.6